Weather Roundup
Issued by NWS Springfield, MO

Home | Current Version | Previous Version | Text Only | Print | Product List | Glossary On
Versions: 1 2 3 4 5 6 7 8 9 10 11 12 13 14 15 16 17 18 19 20 21 22 23 24 25 26 27 28 29 30 31 32 33 34 35 36 37 38 39 40 41 42 43 44 45 46 47 48 49 50
846
NZUS99 KSGF 031857
HRRSGF

HOURLY WEATHER
NATIONAL WEATHER SERVICE SPRINGFIELD MO
200 PM CDT TUE MAY 03 2016

......SGF CWA......

CITY           SKY/WX    TMP DP  RH WIND       PRES   REMARKS
SPRINGFIELD    MOSUNNY   64  40  41 N15       30.04F
JOPLIN         SUNNY     65  43  44 N9        30.07F
WEST PLAINS    PTSUNNY   63  41  44 N9        30.03F
ROLLA          PTSUNNY   61  46  57 NW6       30.01F
BRANSON        PTSUNNY   63  39  42 N9        30.06F

......SURROUNDING SGF CWA......

CITY           SKY/WX    TMP DP  RH WIND       PRES   REMARKS
CHANUTE        MOSUNNY   66  43  43 CALM      30.06F
PARSONS        PTSUNNY   67  45  45 NW3       30.08F
COFFEYVILLE    PTSUNNY   68  45  43 MISG      30.07F
EMPORIA        SUNNY     68  42  38 S9        30.04F
HARRISON AR    PTSUNNY   63  41  44 N6        30.06F

......KANSAS AND MISSOURI......

CITY           SKY/WX    TMP DP  RH WIND       PRES   REMARKS
KANSAS CTY INT PTSUNNY   66  41  40 W8        30.04F
SEDALIA        CLOUDY    65  42  43 N8        30.05F
ST JOSEPH      PTSUNNY   67  41  38 W9        30.03F
ST LOUIS       CLOUDY    65  39  38 N8        30.00F
WICHITA        MOSUNNY   70  46  42 SW15      30.04F
TOPEKA         SUNNY     67  40  37 CALM      30.03F
OLATHE         MOSUNNY   63  38  39 NW6       30.04F

......TENNESSEE......

CITY           SKY/WX    TMP DP  RH WIND       PRES   REMARKS
MEMPHIS        NOT AVBL
NASHVILLE      PTSUNNY   66  49  54 N5        29.95F

......ARKANSAS.......

CITY           SKY/WX    TMP DP  RH WIND       PRES   REMARKS
FAYETTEVILLE   MOSUNNY   63  44  50 NW8       30.08F
FT SMITH       MOSUNNY   69  40  34 W7        30.06F
LITTLE ROCK    PTSUNNY   67  46  47 NW5       30.05F

......OKLAHOMA.......

CITY           SKY/WX    TMP DP  RH WIND       PRES   REMARKS
TULSA          PTSUNNY   68  44  42 W6        30.06F
MCALESTER      MOSUNNY   69  43  38 N13       30.10F
OKLAHOMA CITY  PTSUNNY   68  38  33 VRB3      30.08F

......IOWA............

CITY           SKY/WX    TMP DP  RH WIND       PRES   REMARKS
DES MOINES     NOT AVBL
QUAD CITIES    PTSUNNY   68  38  33 W15G23    29.91F

......ILLINOIS........

CITY           SKY/WX    TMP DP  RH WIND       PRES   REMARKS
QUINCY         NOT AVBL
CHICAGO        PTSUNNY   64  38  38 W10       29.86F




USA.gov is the U.S. government's official web portal to all federal, state and local government web resources and services.